Location: Emblem
(62.4273°N, 6.4710°E)
Time: 06:31:46
(UTC+02:00)

Transit 2A - Pass Details

Date: 08 March 2024
Orbit: 596 x 956 km, 66.7° (Epoch: 24 April)

Event Time Altitude Azimuth Distance (km) Brightness Sun altitude
Rises 20:41:09 0° 263° (W) 2,859 10.0 -17.1°
Reaches altitude 10° 20:43:23 10° 268° (W) 1,975 9.1 -17.3°
Maximum altitude 20:47:44 55° 347° (NNW) 775 6.2 -17.7°
Enters shadow 20:51:06 18° 61° (ENE) 1,628 7.4 -18.1°
